OAL3KY LGAV-LGKY

Flight info

Callsign OAL3KY
Flight time 0h 43m
Altitude 17000
Route KEA L995 AKINA
Aircraft AT76/M-SDFGIRY/S

Departure

Time 2026-04-26 09:55
Airport Athens Eleftherios Venizelos International Airport (LGAV)

Arrival

Time 2026-04-26 10:38
Airport Kalymnos Airport (LGKY)
Time Latitude Longitude Altitude Speed Heading
2026-04-26 09:28 37.94502 23.95562 299 ft 0 kts 37°
2026-04-26 09:44 37.94500 23.95560 297 ft 3 kts 37°
2026-04-26 09:44 37.94479 23.95542 300 ft 4 kts 26°
2026-04-26 09:45 37.94454 23.95532 299 ft 4 kts 352°
2026-04-26 09:45 37.94451 23.95532 298 ft 0 kts 279°
2026-04-26 09:46 37.94450 23.95530 298 ft 0 kts 264°
2026-04-26 09:46 37.94448 23.95529 300 ft 0 kts 228°
2026-04-26 09:46 37.94443 23.95530 300 ft 0 kts 174°
2026-04-26 09:46 37.94442 23.95533 300 ft 0 kts 144°
2026-04-26 09:48 37.94414 23.95582 297 ft 8 kts 127°
2026-04-26 09:48 37.94384 23.95636 299 ft 11 kts 127°
2026-04-26 09:49 37.94339 23.95711 300 ft 10 kts 126°
2026-04-26 09:49 37.94267 23.95726 296 ft 17 kts 219°
2026-04-26 09:49 37.94171 23.95633 298 ft 17 kts 216°
2026-04-26 09:49 37.94071 23.95642 294 ft 15 kts 154°
2026-04-26 09:50 37.93972 23.95587 296 ft 19 kts 217°
2026-04-26 09:50 37.93868 23.95490 294 ft 18 kts 216°
2026-04-26 09:50 37.93771 23.95397 294 ft 17 kts 216°
2026-04-26 09:50 37.93678 23.95311 296 ft 16 kts 218°
2026-04-26 09:51 37.93589 23.95224 294 ft 16 kts 216°
2026-04-26 09:51 37.93499 23.95142 297 ft 16 kts 217°
2026-04-26 09:51 37.93410 23.95055 297 ft 16 kts 219°
2026-04-26 09:51 37.93321 23.94968 297 ft 17 kts 216°
2026-04-26 09:52 37.93227 23.94881 297 ft 17 kts 217°
2026-04-26 09:52 37.93037 23.94698 299 ft 17 kts 216°
2026-04-26 09:52 37.92939 23.94608 298 ft 19 kts 216°
2026-04-26 09:53 37.92835 23.94512 298 ft 18 kts 215°
2026-04-26 09:53 37.92740 23.94422 299 ft 17 kts 218°
2026-04-26 09:53 37.92651 23.94334 299 ft 16 kts 217°
2026-04-26 09:53 37.92561 23.94291 300 ft 13 kts 150°
2026-04-26 09:54 37.92497 23.94394 305 ft 23 kts 117°
2026-04-26 09:54 37.92653 23.94614 301 ft 60 kts 37°
2026-04-26 09:54 37.93140 23.95074 293 ft 111 kts 37°
2026-04-26 09:54 37.93858 23.95741 427 ft 135 kts 37°
2026-04-26 09:55 37.94617 23.96434 953 ft 137 kts 37°
2026-04-26 09:55 37.95440 23.97195 1248 ft 158 kts 34°
2026-04-26 09:55 37.96367 23.98070 1536 ft 172 kts 37°
2026-04-26 09:55 37.97319 23.99021 1787 ft 181 kts 37°
2026-04-26 09:56 37.98352 24.00038 1975 ft 193 kts 38°
2026-04-26 09:56 37.99033 24.01510 2207 ft 205 kts 79°
2026-04-26 09:56 37.98748 24.03290 2423 ft 216 kts 120°
2026-04-26 09:56 37.97752 24.04747 2662 ft 219 kts 132°
2026-04-26 09:57 37.96696 24.06150 2903 ft 221 kts 132°
2026-04-26 09:57 37.95667 24.07570 3136 ft 222 kts 130°
2026-04-26 09:57 37.94671 24.09068 3355 ft 222 kts 126°
2026-04-26 09:57 37.93718 24.10616 3583 ft 223 kts 125°
2026-04-26 09:58 37.92785 24.12190 3833 ft 224 kts 125°
2026-04-26 09:58 37.91858 24.13773 4082 ft 224 kts 125°
2026-04-26 09:58 37.90912 24.15353 4326 ft 226 kts 126°
2026-04-26 09:58 37.89952 24.16932 4571 ft 226 kts 127°
2026-04-26 09:59 37.88989 24.18505 4823 ft 226 kts 128°
2026-04-26 09:59 37.88025 24.20078 5065 ft 226 kts 128°
2026-04-26 09:59 37.87062 24.21652 5319 ft 226 kts 128°
2026-04-26 09:59 37.86097 24.23231 5563 ft 227 kts 128°
2026-04-26 10:00 37.85132 24.24807 5808 ft 227 kts 128°
2026-04-26 10:00 37.84166 24.26384 6055 ft 227 kts 128°
2026-04-26 10:00 37.83200 24.27960 6304 ft 227 kts 128°
2026-04-26 10:00 37.82231 24.29537 6537 ft 227 kts 128°
2026-04-26 10:01 37.81266 24.31112 6755 ft 226 kts 128°
2026-04-26 10:01 37.80301 24.32684 6988 ft 227 kts 128°
2026-04-26 10:01 37.79333 24.34260 7211 ft 227 kts 128°
2026-04-26 10:01 37.78367 24.35834 7438 ft 227 kts 128°
2026-04-26 10:02 37.77401 24.37408 7657 ft 227 kts 128°
2026-04-26 10:02 37.76433 24.38982 7883 ft 226 kts 128°
2026-04-26 10:02 37.75469 24.40549 8116 ft 225 kts 127°
2026-04-26 10:02 37.74511 24.42110 8347 ft 225 kts 127°
2026-04-26 10:03 37.73565 24.43644 8573 ft 224 kts 127°
2026-04-26 10:03 37.72610 24.45197 8800 ft 224 kts 127°
2026-04-26 10:03 37.71654 24.46747 9027 ft 224 kts 127°
2026-04-26 10:03 37.70686 24.48318 9260 ft 223 kts 127°
2026-04-26 10:04 37.69745 24.49844 9480 ft 223 kts 127°
2026-04-26 10:04 37.68800 24.51369 9749 ft 220 kts 127°
2026-04-26 10:04 37.67859 24.52896 9959 ft 221 kts 127°
2026-04-26 10:04 37.66916 24.54425 10147 ft 221 kts 127°
2026-04-26 10:05 37.65967 24.55954 10335 ft 222 kts 127°
2026-04-26 10:05 37.65018 24.57491 10519 ft 223 kts 127°
2026-04-26 10:05 37.64064 24.59036 10708 ft 224 kts 127°
2026-04-26 10:05 37.63099 24.60581 10893 ft 225 kts 127°
2026-04-26 10:06 37.62134 24.62136 11079 ft 225 kts 126°
2026-04-26 10:06 37.61159 24.63687 11264 ft 226 kts 126°
2026-04-26 10:06 37.60187 24.65250 11441 ft 227 kts 126°
2026-04-26 10:06 37.59213 24.66816 11616 ft 227 kts 126°
2026-04-26 10:07 37.58236 24.68388 11809 ft 228 kts 126°
2026-04-26 10:07 37.57260 24.69962 11991 ft 228 kts 126°
2026-04-26 10:07 37.56280 24.71541 12174 ft 229 kts 126°
2026-04-26 10:07 37.55298 24.73118 12364 ft 229 kts 126°
2026-04-26 10:08 37.54317 24.74699 12555 ft 230 kts 126°
2026-04-26 10:08 37.53334 24.76285 12738 ft 230 kts 126°
2026-04-26 10:08 37.52345 24.77875 12921 ft 231 kts 125°
2026-04-26 10:08 37.51354 24.79468 13103 ft 231 kts 125°
2026-04-26 10:09 37.50360 24.81063 13286 ft 232 kts 125°
2026-04-26 10:09 37.49365 24.82663 13467 ft 232 kts 125°
2026-04-26 10:09 37.48367 24.84263 13646 ft 233 kts 125°
2026-04-26 10:09 37.47372 24.85861 13814 ft 233 kts 125°
2026-04-26 10:10 37.46367 24.87472 13976 ft 233 kts 125°
2026-04-26 10:10 37.45365 24.89077 14125 ft 233 kts 125°
2026-04-26 10:10 37.44366 24.90678 14287 ft 233 kts 125°
2026-04-26 10:10 37.43363 24.92287 14449 ft 234 kts 125°
2026-04-26 10:11 37.42357 24.93899 14618 ft 235 kts 125°
2026-04-26 10:11 37.41347 24.95512 14795 ft 235 kts 125°
2026-04-26 10:11 37.40335 24.97129 14983 ft 235 kts 125°
2026-04-26 10:11 37.39324 24.98742 15134 ft 235 kts 125°
2026-04-26 10:12 37.38312 25.00359 15286 ft 235 kts 125°
2026-04-26 10:12 37.37300 25.01977 15447 ft 235 kts 125°
2026-04-26 10:12 37.36317 25.03605 15599 ft 233 kts 118°
2026-04-26 10:12 37.35695 25.05455 15719 ft 229 kts 104°
2026-04-26 10:13 37.35244 25.07367 15853 ft 228 kts 103°
2026-04-26 10:13 37.34808 25.09286 15988 ft 228 kts 103°
2026-04-26 10:13 37.34345 25.11199 16125 ft 229 kts 104°
2026-04-26 10:13 37.33846 25.13101 16259 ft 229 kts 105°
2026-04-26 10:14 37.33336 25.15001 16390 ft 229 kts 105°
2026-04-26 10:14 37.32826 25.16901 16512 ft 230 kts 105°
2026-04-26 10:14 37.32314 25.18813 16650 ft 232 kts 105°
2026-04-26 10:14 37.31790 25.20770 16663 ft 238 kts 105°
2026-04-26 10:15 37.31258 25.22748 16767 ft 239 kts 105°
2026-04-26 10:15 37.30735 25.24703 16852 ft 240 kts 105°
2026-04-26 10:15 37.30189 25.26732 16887 ft 244 kts 105°
2026-04-26 10:15 37.29651 25.28731 16912 ft 246 kts 105°
2026-04-26 10:16 37.29102 25.30786 16919 ft 250 kts 105°
2026-04-26 10:16 37.28543 25.32865 16898 ft 253 kts 105°
2026-04-26 10:16 37.27976 25.34961 16903 ft 254 kts 106°
2026-04-26 10:16 37.27368 25.37054 16902 ft 256 kts 108°
2026-04-26 10:17 37.26711 25.39131 16904 ft 257 kts 109°
2026-04-26 10:17 37.26035 25.41214 16902 ft 258 kts 109°
2026-04-26 10:17 37.25362 25.43307 16902 ft 258 kts 109°
2026-04-26 10:17 37.24686 25.45396 16902 ft 259 kts 109°
2026-04-26 10:18 37.24012 25.47492 16900 ft 259 kts 109°
2026-04-26 10:18 37.23340 25.49588 16900 ft 259 kts 109°
2026-04-26 10:18 37.22664 25.51685 16902 ft 259 kts 109°
2026-04-26 10:18 37.21969 25.53777 16902 ft 260 kts 110°
2026-04-26 10:19 37.21267 25.55862 16942 ft 258 kts 110°
2026-04-26 10:19 37.20575 25.57935 16977 ft 257 kts 109°
2026-04-26 10:19 37.19889 25.60012 16992 ft 259 kts 109°
2026-04-26 10:19 37.19191 25.62116 16998 ft 264 kts 110°
2026-04-26 10:20 37.18480 25.64249 17009 ft 266 kts 110°
2026-04-26 10:20 37.18002 25.65660 17007 ft 264 kts 109°
2026-04-26 10:20 37.17033 25.68480 17005 ft 263 kts 109°
2026-04-26 10:20 37.16316 25.70581 17005 ft 261 kts 110°
2026-04-26 10:21 37.15623 25.72683 17005 ft 261 kts 110°
2026-04-26 10:21 37.14943 25.74782 17006 ft 260 kts 108°
2026-04-26 10:21 37.14251 25.76873 17005 ft 259 kts 109°
2026-04-26 10:21 37.13553 25.78954 17006 ft 259 kts 110°
2026-04-26 10:22 37.12848 25.81032 17006 ft 259 kts 110°
2026-04-26 10:22 37.12379 25.82405 17011 ft 259 kts 111°
2026-04-26 10:22 37.11446 25.85159 16997 ft 259 kts 109°
2026-04-26 10:22 37.10738 25.87264 16822 ft 265 kts 109°
2026-04-26 10:23 37.10021 25.89414 16642 ft 270 kts 109°
2026-04-26 10:23 37.09527 25.90886 16513 ft 272 kts 109°
2026-04-26 10:23 37.08800 25.93089 16345 ft 275 kts 110°
2026-04-26 10:23 37.08060 25.95319 16174 ft 279 kts 111°
2026-04-26 10:24 37.07305 25.97562 15994 ft 281 kts 111°
2026-04-26 10:24 37.06539 25.99819 15816 ft 282 kts 110°
2026-04-26 10:24 37.05760 26.02084 15628 ft 284 kts 111°
2026-04-26 10:24 37.04981 26.04364 15447 ft 285 kts 111°
2026-04-26 10:25 37.04207 26.06655 15272 ft 286 kts 111°
2026-04-26 10:25 37.03437 26.08913 15091 ft 287 kts 111°
2026-04-26 10:25 37.02658 26.11213 14920 ft 288 kts 111°
2026-04-26 10:25 37.01878 26.13523 14741 ft 288 kts 110°
2026-04-26 10:26 37.01098 26.15838 14552 ft 289 kts 111°
2026-04-26 10:26 37.00316 26.18160 14372 ft 290 kts 111°
2026-04-26 10:26 36.99524 26.20478 14188 ft 289 kts 111°
2026-04-26 10:26 36.98731 26.22787 14007 ft 289 kts 111°
2026-04-26 10:27 36.97967 26.25083 13840 ft 285 kts 107°
2026-04-26 10:27 36.97623 26.27529 13443 ft 288 kts 94°
2026-04-26 10:27 36.97500 26.30040 13129 ft 290 kts 92°
2026-04-26 10:27 36.97377 26.32547 12867 ft 288 kts 94°
2026-04-26 10:28 36.97195 26.35024 12495 ft 284 kts 96°
2026-04-26 10:28 36.96978 26.37457 12101 ft 279 kts 96°
2026-04-26 10:28 36.96768 26.39850 11714 ft 275 kts 96°
2026-04-26 10:28 36.96566 26.42210 11345 ft 271 kts 96°
2026-04-26 10:29 36.96364 26.44546 10984 ft 269 kts 96°
2026-04-26 10:29 36.96163 26.46856 10629 ft 266 kts 96°
2026-04-26 10:29 36.95965 26.49150 10281 ft 264 kts 97°
2026-04-26 10:29 36.95765 26.51422 9936 ft 262 kts 97°
2026-04-26 10:30 36.95567 26.53681 9552 ft 260 kts 97°
2026-04-26 10:30 36.95370 26.55918 9196 ft 258 kts 96°
2026-04-26 10:30 36.95176 26.58143 8837 ft 257 kts 96°
2026-04-26 10:30 36.94979 26.60353 8481 ft 255 kts 96°
2026-04-26 10:31 36.94782 26.62551 8136 ft 254 kts 96°
2026-04-26 10:31 36.94591 26.64710 7797 ft 253 kts 96°
2026-04-26 10:31 36.94397 26.66893 7460 ft 252 kts 95°
2026-04-26 10:31 36.94203 26.69068 7125 ft 252 kts 95°
2026-04-26 10:32 36.94010 26.71240 6800 ft 252 kts 95°
2026-04-26 10:32 36.93818 26.73414 6463 ft 252 kts 94°
2026-04-26 10:32 36.93612 26.75586 6123 ft 252 kts 95°
2026-04-26 10:32 36.93398 26.77758 5777 ft 252 kts 95°
2026-04-26 10:33 36.93185 26.79934 5431 ft 252 kts 94°
2026-04-26 10:33 36.92985 26.82111 5088 ft 252 kts 94°
2026-04-26 10:33 36.92789 26.84290 4754 ft 252 kts 94°
2026-04-26 10:33 36.92593 26.86445 4415 ft 247 kts 94°
2026-04-26 10:34 36.92401 26.88553 4080 ft 241 kts 93°
2026-04-26 10:34 36.92221 26.90531 3770 ft 218 kts 93°
2026-04-26 10:34 36.92057 26.92329 3478 ft 199 kts 93°
2026-04-26 10:34 36.91906 26.93969 3223 ft 182 kts 92°
2026-04-26 10:35 36.91771 26.95479 2988 ft 169 kts 92°
2026-04-26 10:35 36.91643 26.96894 2782 ft 160 kts 92°
2026-04-26 10:35 36.91516 26.98257 2546 ft 155 kts 91°
2026-04-26 10:35 36.91799 26.99420 2310 ft 135 kts 39°
2026-04-26 10:36 36.92587 26.99944 2119 ft 125 kts 22°
2026-04-26 10:36 36.93368 27.00314 2046 ft 113 kts 18°
2026-04-26 10:36 36.94122 27.00271 1862 ft 116 kts 327°
2026-04-26 10:36 36.94682 26.99542 1682 ft 116 kts 317°
2026-04-26 10:37 36.95205 26.98836 1697 ft 107 kts 316°
2026-04-26 10:37 36.95624 26.97988 1596 ft 122 kts 298°
2026-04-26 10:37 36.95900 26.96977 1336 ft 119 kts 286°
2026-04-26 10:37 36.96059 26.95957 997 ft 122 kts 284°
2026-04-26 10:38 36.96211 26.94955 798 ft 116 kts 284°
2026-04-26 10:38 36.96355 26.94063 723 ft 75 kts 278°
2026-04-26 10:38 36.96407 26.93728 720 ft 25 kts 281°
2026-04-26 10:38 36.96435 26.93546 719 ft 18 kts 281°
2026-04-26 10:39 36.96466 26.93466 719 ft 5 kts 258°
2026-04-26 10:39 36.96435 26.93476 721 ft 8 kts 94°
2026-04-26 10:39 36.96434 26.93561 719 ft 11 kts 100°
2026-04-26 10:39 36.96418 26.93657 720 ft 12 kts 102°
2026-04-26 10:40 36.96401 26.93756 721 ft 12 kts 102°
2026-04-26 10:40 36.96384 26.93858 721 ft 12 kts 102°
2026-04-26 10:40 36.96367 26.93962 722 ft 12 kts 101°
2026-04-26 10:40 36.96351 26.94063 723 ft 10 kts 103°
2026-04-26 10:41 36.96384 26.94109 721 ft 8 kts 15°
2026-04-26 10:41 36.96431 26.94097 721 ft 6 kts 307°
2026-04-26 10:41 36.96436 26.94075 721 ft 0 kts 279°